Regional Weather Roundup
Issued by NWS Mt. Holly, NJ

Home | Current Version | Previous Version | Text Only | Print | Product List | Glossary On
Versions: 1 2 3 4 5 6 7 8 9 10 11 12 13 14 15 16 17 18 19 20 21 22 23 24 25 26 27 28 29 30 31 32 33 34 35 36 37 38 39 40 41 42 43 44 45 46 47 48 49 50
000
ASUS41 KPHI 261310
RWRPHI

REGIONAL WEATHER ROUNDUP
NATIONAL WEATHER SERVICE MOUNT HOLLY NJ
800 AM EST WED NOV 26 2014

NOTE:  "FAIR" INDICATES FEW OR NO CLOUDS BELOW 12,000 FEET WITH NO
SIGNIFICANT WEATHER AND/OR OBSTRUCTIONS TO VISIBILITY.

 * = STATION DOES NOT REPORT PRECIPITATION (E.G. RAIN, SNOW, ETC.)
        OR FOG.

NJZ015>026-261400-
SOUTHERN NEW JERSEY

CITY           SKY/WX    TMP DP  RH WIND       PRES   REMARKS
POMONA         LGT RAIN  42  41  96 N9        30.04F FOG
RIO GRANDE*    CLOUDY    43  37  81 NE10      30.01F
MILLVILLE      LGT RAIN  42  39  89 NE14G22   30.05F
WRIGHTSTOWN    LGT RAIN  40  37  88 N13       30.06F WCI  33
MOUNT HOLLY    RAIN      39  36  89 NE13G20   30.10F FOG     WCI  31
TRENTON        LGT RAIN  40  36  86 E7        30.10F FOG

$$
NJZ001>014-261400-
NORTHERN NEW JERSEY

CITY           SKY/WX    TMP DP  RH WIND       PRES   REMARKS
SUSSEX         LGT RAIN  38  31  76 N9        30.12F WCI  31
ANDOVER*         N/A     37  32  82 VRB3      30.12F
MORRISTOWN     LGT RAIN  39  36  87 N8G16     30.14R WCI  34
NEWARK         LGT RAIN  41  35  79 NE17G23   30.15S
TETERBORO      LGT RAIN  41  34  76 NE6       30.15R
CALDWELL       LGT RAIN  39  32  76 NE6       30.14F WCI  35
SOMERVILLE     LGT RAIN  40  34  79 NE7       30.10F
ALLAIRE*       CLOUDY    45  30  57 NE13G20   30.10F
TOMS RIVER*    CLOUDY    43  39  87 NE3       30.07F

$$
PAZ043-044-047-054-055-060>062-066>071-261400-
EASTERN PENNSYLVANIA

CITY           SKY/WX    TMP DP  RH WIND       PRES   REMARKS
PHILADELPHIA   LGT RAIN  41  37  86 NE13G22   30.08F FOG
NORTH PHILA    LGT RAIN  42  36  79 NE8       30.12F
BLUE BELL      CLOUDY    41  37  87 CALM      30.09F
DOYLESTOWN     LGT RAIN  37  36  96 NE6       30.11F WCI  32
QUAKERTOWN*    CLOUDY    37  34  87 N6        30.12R WCI  33
POTTSTOWN      RAIN      38  35  89 NE9       30.11F FOG     WCI  31
LANCASTER      RAIN      37  33  85 NE10G20   30.10F FOG     WCI  30
COATESVILLE    RAIN      37  37 100 NE7       30.08R WCI  32
READING        LGT RAIN  38  33  82 NE13      30.09F WCI  30
ALLENTOWN      LGT RAIN  38  32  79 N12G20    30.11F WCI  30
MOUNT POCONO   LGT SNOW  32  29  88 NE7       30.06F VSB 3/4 WCI  26
HAZLETON       LGT SNOW  34  32  93 N6        30.10F WCI  29
WILKES BARRE   CLOUDY    38  28  67 NE8       30.12F WCI  32

$$
DEZALL-MDZ008-012-015-019-020-261400-
DELAWARE AND EASTERN MARYLAND

CITY           SKY/WX    TMP DP  RH WIND       PRES   REMARKS
WILMINGTON     RAIN      42  39  89 NE9       30.10S FOG
DOVER          HVY RAIN  42  42 100 N13G24    30.05S FOG
GEORGETOWN     RAIN      44  42  93 NE16G28   30.03F FOG
EASTON         RAIN      45  45 100 NE16      30.08F FOG
PATUXENT       LGT RAIN  44  41  89 NE16      30.00F FOG
OCEAN CITY     RAIN      46  44  93 NE20G30   29.98F FOG
WALLOPS ISLAND HVY RAIN  45  44  97 NE17      29.96F FOG
CAMBRIDGE      CLOUDY    45  41  87 NE9G16    30.02F
SALISBURY      HVY RAIN  46  43  89 N14       30.01S FOG

$$
PAZ001-021-NYZ056-072-MDZ011-DCZ001-261400-
OTHER NEARBY LOCATIONS

CITY           SKY/WX    TMP DP  RH WIND       PRES   REMARKS
HARRISBURG     LGT RAIN  39  35  86 NE5       30.10S FOG
STATE COLLEGE  CLOUDY    32  27  80 N5        30.10R WCI  27
WILLIAMSPORT   CLOUDY    35  30  82 E3        30.13S
BINGHAMTON     CLOUDY    31  25  78 E6        30.12F WCI  25
NEW YORK CITY  LGT RAIN  40  35  83 NE12G17   30.16F WCI  33
BALTIMORE      RAIN      42  39  89 NE9       30.07S FOG
WASHINGTON DC  RAIN      45  38  76 NE16      30.08S

$$


USA.gov is the U.S. government's official web portal to all federal, state and local government web resources and services.